Location: Pella
(41.4080°N, 92.9160°W)
Time: 04:18:04
(UTC-05:00)

ATLAS 5 CENTAUR R/B - Visible Passes

Search period start: 22 July 2014 00:00
Search period end: 01 August 2014 00:00
Orbit: 393 x 409 km, 35.7° (Epoch: 21 July)

Date Brightness Start Highest point End Pass type
(mag) Time Alt. Az. Time Alt. Az. Time Alt. Az.
22 Jul 4.0 03:26:48 11° ESE 03:26:48 11° ESE 03:26:54 10° ESE visible
22 Jul 2.2 04:59:20 15° WSW 05:01:26 29° S 05:04:17 10° ESE visible
23 Jul 2.4 04:07:21 27° SSE 04:07:21 27° SSE 04:09:32 10° ESE visible
24 Jul 2.4 04:48:00 20° SW 04:49:02 24° S 04:51:43 10° SE visible
25 Jul 3.5 03:56:17 15° SE 03:56:17 15° SE 03:57:00 10° SE visible
26 Jul 3.1 04:37:21 15° S 04:37:21 15° S 04:38:38 10° SSE visible
31 Jul 3.0 21:27:30 10° SSW 21:29:24 15° SSE 21:29:51 14° SSE visible
